[[{"header":{"parameterUnit":"m.s-1","parameterCategory":1,"la1":30.2991,"la2":30.254,"lo1":-89.0895,"lo2":-89.0444,"dy":0.0017,"dx":0.0017,"nx":28,"ny":28,"refTime":"2024-03-21T21:00:00:Z","depth":0,"parameterNumber":2,"parameterNumberName":"U-component_of_WINDS"},"data":[0,0,0,0,0,0,0,0,0,0,0,0,0,0,0,0,0,0,0,0,0,0,0,0,0,0,0,0,0,0,0,0,0,0,0,0,0,0,0,0,0,0,0,0,0,0,0,0,0,0,0,0,0,0,0,0,0,0,-1.6766,-1.6766,0,-1.6698,-1.6697,-1.6696,-1.6625,-1.6624,-1.6623,-1.6622,-1.6554,-1.6553,-1.6552,0,0,0,0,0,0,0,0,0,0,0,0,0,-1.6838,-1.6837,-1.6766,-1.6766,-1.6765,-1.6698,-1.6697,-1.6696,-1.6625,-1.6624,-1.6623,-1.6622,-1.6554,-1.6553,-1.6552,0,0,0,0,0,0,0,0,0,0,0,0,0,-1.6792,-1.6837,-1.6767,-1.6721,-1.6716,-1.6698,-1.6697,-1.6696,-1.6625,-1.6624,-1.6622,-1.6621,-1.6554,-1.6553,-1.6552,-1.6573,0,0,-1.6548,-1.6547,0,0,0,0,0,0,0,0,-1.6795,-1.679,-1.6729,-1.6724,-1.6719,-1.6668,-1.6697,-1.6655,-1.6626,-1.666,-1.6622,-1.662,-1.6593,-1.6589,-1.6579,-1.657,-1.6567,-1.6548,-1.6547,-1.6546,-1.6546,0,0,0,0,0,0,0,-1.6798,-1.6792,-1.6739,-1.6728,-1.6722,-1.6705,-1.6697,-1.6689,-1.6636,-1.6657,-1.6652,-1.6644,-1.659,-1.6581,-1.6577,-1.6566,-1.6548,-1.6546,-1.6546,-1.6545,-1.6574,-1.6575,0,0,0,0,0,0,-1.6808,-1.6795,-1.6741,-1.6737,-1.6754,-1.6705,-1.6696,-1.6686,-1.6636,-1.6627,-1.6646,-1.6641,-1.6584,-1.6579,-1.6574,-1.6597,-1.6546,-1.6545,-1.6544,-1.6572,-1.6574,-1.6576,0,0,0,0,0,0,-1.681,-1.6804,-1.6744,-1.6765,-1.6756,-1.6705,-1.6695,-1.6686,-1.6676,-1.6627,-1.6618,-1.6645,-1.6582,-1.6576,-1.6574,-1.6594,-1.6544,-1.6543,-1.657,-1.6573,-1.6575,-1.6643,0,0,0,0,0,0,-1.6812,-1.6805,-1.6812,-1.6765,-1.6755,-1.6745,-1.6696,-1.6685,-1.6673,-1.6667,-1.6624,-1.6616,-1.6581,-1.6577,-1.6573,-1.6591,-1.6542,-1.6568,-1.6571,-1.6574,-1.6639,-1.6648,-1.6655,0,0,0,0,0,-1.6815,-1.6834,-1.6812,-1.6806,-1.6763,-1.6746,-1.674,-1.6699,-1.6675,-1.6682,-1.6652,-1.6617,-1.6593,-1.6577,-1.6572,-1.659,-1.6567,-1.6571,-1.6574,-1.6635,-1.6646,-1.6655,0,0,0,0,0,0,-1.6884,-1.6827,-1.6802,-1.6807,-1.6782,-1.6734,-1.6741,-1.6711,-1.6692,-1.6687,-1.6637,-1.6628,-1.6633,-1.6611,-1.6595,-1.661,-1.6575,-1.6578,-1.6623,-1.6633,-1.6641,-1.6646,-1.6541,0,0,0,0,0,-1.6899,-1.689,-1.6841,-1.6849,-1.6838,-1.6792,-1.6784,-1.6754,-1.6726,-1.6715,-1.6684,-1.6659,-1.6646,-1.6638,-1.6623,-1.6636,-1.6626,-1.6646,-1.6654,-1.6661,-1.6664,-1.667,-1.6679,-1.6587,-1.6587,-1.6587,0,0,-1.6931,-1.6899,-1.6896,-1.6863,-1.684,-1.6832,-1.6784,-1.6777,-1.6772,-1.6714,-1.6711,-1.6688,-1.6657,-1.6663,-1.6664,-1.6645,-1.6687,-1.6665,-1.6671,-1.667,-1.6675,-1.6684,-1.6691,-1.659,-1.6589,-1.6589,0,0,-1.6986,-1.6961,-1.6965,-1.6944,-1.691,-1.6879,-1.6881,-1.6838,-1.682,-1.6816,-1.6774,-1.6767,-1.6744,-1.6724,-1.6711,-1.6761,-1.673,-1.6758,-1.6799,-1.6807,-1.6814,-1.682,-1.6839,-1.6846,-1.6761,-1.6761,-1.6761,0,-1.7031,-1.7017,-1.6972,-1.6968,-1.6956,-1.6904,-1.6909,-1.689,-1.6854,-1.6846,-1.6826,-1.6798,-1.6774,-1.6775,-1.6787,-1.6778,-1.6779,-1.6762,-1.6816,-1.6822,-1.6827,-1.6844,-1.6852,-1.6765,-1.6764,-1.6764,-1.6764,0,-1.7073,-1.7065,-1.7073,-1.7039,-1.7027,-1.7028,-1.6984,-1.6978,-1.695,-1.6922,-1.692,-1.6889,-1.6867,-1.6865,-1.6838,-1.6863,-1.6853,-1.6825,-1.6789,-1.684,-1.6856,-1.6862,-1.677,-1.6769,-1.6768,-1.6767,0,0,-1.7168,-1.7111,-1.7114,-1.7099,-1.7059,-1.7052,-1.7051,-1.703,-1.7026,-1.7003,-1.7002,-1.6986,-1.696,-1.6946,-1.6916,-1.6922,-1.6965,-1.6893,-1.6892,-1.6908,-1.6993,-1.7014,-1.7023,-1.6944,-1.6945,-1.6946,-1.6996,0,-1.7216,-1.7212,-1.7172,-1.7179,-1.7172,-1.7123,-1.7123,-1.7099,-1.7074,-1.7064,-1.7037,-1.7026,-1.6993,-1.6984,-1.6988,-1.6959,-1.6981,-1.6955,-1.6944,-1.6944,-1.6953,-1.703,-1.7053,-1.7101,-1.7001,-1.7002,-1.7003,0,-1.7271,-1.7252,-1.7259,-1.722,-1.7215,-1.7215,-1.7194,-1.7185,-1.7158,-1.7139,-1.7124,-1.709,-1.7089,-1.7055,-1.7053,-1.7036,-1.7029,-1.7015,-1.7016,-1.7013,-1.6977,-1.7031,-1.7115,-1.7123,-1.7012,-1.7011,-1.7011,0,-1.7341,-1.7317,-1.7318,-1.7306,-1.726,-1.7262,-1.7244,-1.7215,-1.7205,-1.7186,-1.718,-1.7162,-1.7152,-1.7139,-1.7103,-1.7081,-1.7105,-1.7068,-1.7091,-1.7092,-1.7098,-1.7098,-1.7183,-1.7093,-1.7093,-1.7093,-1.7093,0,-1.7399,-1.7405,-1.7349,-1.7349,-1.7355,-1.7311,-1.7318,-1.7295,-1.727,-1.7266,-1.7224,-1.7221,-1.7172,-1.7165,-1.7136,-1.714,-1.7136,-1.7121,-1.7114,-1.7125,-1.7127,-1.712,-1.7116,-1.7095,-1.7094,-1.7094,-1.7094,0,-1.7478,-1.744,-1.7438,-1.7395,-1.7385,-1.7391,-1.7356,-1.7355,-1.7328,-1.7324,-1.732,-1.7278,-1.7267,-1.7229,-1.7209,-1.719,-1.7203,-1.7188,-1.7212,-1.7207,-1.7232,-1.723,-1.7316,-1.7325,-1.7229,-1.723,-1.7231,0,-1.7517,-1.7521,-1.7479,-1.7473,-1.7456,-1.7448,-1.7438,-1.7395,-1.7387,-1.7357,-1.7361,-1.7347,-1.7333,-1.7318,-1.7286,-1.7271,-1.7256,-1.7287,-1.7253,-1.7265,-1.7257,-1.7258,-1.7258,-1.7294,-1.7296,-1.7297,-1.7297,0,-1.7592,-1.7573,-1.756,-1.7542,-1.7531,-1.7514,-1.7495,-1.7493,-1.7446,-1.7439,-1.7427,-1.7417,-1.7397,-1.7384,-1.7364,-1.7346,-1.7315,-1.7309,-1.7313,-1.7325,-1.7339,-1.7333,-1.7232,-1.7307,-1.7306,-1.7305,-1.7304,-1.7304,-1.7652,-1.7654,-1.7625,-1.7613,-1.7594,-1.7577,-1.7575,-1.7548,-1.7538,-1.7518,-1.7493,-1.7485,-1.746,-1.743,-1.7414,-1.7408,-1.7391,-1.7397,-1.7399,-1.7401,-1.7407,-1.734,-1.7404,-1.7404,-1.7404,-1.7403,-1.7403,0,-1.7725,-1.7705,-1.7694,-1.7668,-1.7659,-1.763,-1.7608,-1.7603,-1.7596,-1.7574,-1.7562,-1.755,-1.7538,-1.7506,-1.749,-1.7492,-1.7477,-1.749,-1.7489,-1.7486,-1.7423,-1.7421,-1.7502,-1.7502,-1.7502,-1.7502,-1.7502,-1.7502,-1.7762,-1.7763,-1.7742,-1.7734,-1.7714,-1.7705,-1.7695,-1.7681,-1.7663,-1.7652,-1.7641,-1.762,-1.7595,-1.7578,-1.7566,-1.7557,-1.7554,-1.7571,-1.7558,-1.7499,-1.749,-1.7481,-1.7479,-1.757,-1.7571,-1.7621,-1.7621,-1.7621]},{"header":{"parameterUnit":"m.s-1","parameterCategory":1,"la1":30.2991,"la2":30.254,"lo1":-89.0895,"lo2":-89.0444,"dy":0.0017,"dx":0.0017,"nx":28,"ny":28,"refTime":"2024-03-21T21:00:00:Z","depth":0,"parameterNumber":3,"parameterNumberName":"V-component_of_WINDS"},"data":[0,0,0,0,0,0,0,0,0,0,0,0,0,0,0,0,0,0,0,0,0,0,0,0,0,0,0,0,0,0,0,0,0,0,0,0,0,0,0,0,0,0,0,0,0,0,0,0,0,0,0,0,0,0,0,0,0,0,1.2285,1.2285,0,1.2317,1.2317,1.2317,1.2396,1.2398,1.24,1.2401,1.2429,1.2428,1.2427,0,0,0,0,0,0,0,0,0,0,0,0,0,1.2289,1.2289,1.2285,1.2285,1.2286,1.2316,1.2317,1.2317,1.2396,1.2398,1.24,1.2402,1.2429,1.2428,1.2427,0,0,0,0,0,0,0,0,0,0,0,0,0,1.2301,1.2289,1.2285,1.2329,1.2333,1.2316,1.2317,1.2317,1.2396,1.2398,1.2401,1.2403,1.2429,1.2428,1.2427,1.2369,0,0,1.2423,1.2423,0,0,0,0,0,0,0,0,1.23,1.23,1.2322,1.2326,1.2331,1.2355,1.2329,1.2334,1.2395,1.2372,1.2401,1.2404,1.2402,1.2403,1.2403,1.237,1.2371,1.2423,1.2422,1.2422,1.2421,0,0,0,0,0,0,0,1.2299,1.2299,1.2297,1.2322,1.2327,1.2346,1.235,1.233,1.2372,1.2374,1.238,1.2383,1.2405,1.2404,1.2405,1.2372,1.2423,1.2422,1.2421,1.2421,1.2292,1.229,0,0,0,0,0,0,1.2293,1.2298,1.2296,1.2298,1.2321,1.2344,1.2349,1.2345,1.2373,1.2379,1.238,1.2386,1.2405,1.2406,1.2406,1.2339,1.2422,1.2421,1.242,1.2295,1.2292,1.2289,0,0,0,0,0,0,1.2292,1.2292,1.2295,1.23,1.2302,1.2341,1.2336,1.2344,1.2344,1.2378,1.2385,1.2373,1.2407,1.2408,1.2378,1.2341,1.242,1.2419,1.2298,1.2294,1.229,1.2205,0,0,0,0,0,0,1.2292,1.2291,1.227,1.2299,1.2301,1.2267,1.2334,1.2343,1.2342,1.235,1.2372,1.2378,1.2409,1.2379,1.2376,1.2341,1.2418,1.2301,1.2296,1.2291,1.2212,1.2199,1.2188,0,0,0,0,0,1.2292,1.2244,1.2269,1.2268,1.2276,1.2265,1.2266,1.2304,1.2339,1.2317,1.2339,1.2378,1.2346,1.2375,1.2373,1.2337,1.2304,1.2298,1.2292,1.2217,1.2202,1.2189,0,0,0,0,0,0,1.2208,1.2248,1.2276,1.2236,1.2247,1.2278,1.2252,1.2287,1.2286,1.2293,1.2339,1.2344,1.2307,1.2319,1.2351,1.2282,1.2331,1.2324,1.2275,1.2261,1.2249,1.2246,1.2417,0,0,0,0,0,1.2185,1.2174,1.221,1.2171,1.2175,1.2213,1.2209,1.2238,1.225,1.2254,1.2274,1.2283,1.2275,1.2269,1.2264,1.2214,1.222,1.2188,1.2177,1.2167,1.216,1.2134,1.212,1.2269,1.2269,1.2269,0,0,1.2137,1.2158,1.2147,1.2154,1.2166,1.2152,1.2216,1.2198,1.2188,1.2251,1.2224,1.2239,1.2252,1.2212,1.2196,1.2221,1.212,1.2159,1.2151,1.215,1.2127,1.2113,1.21,1.2265,1.2266,1.2266,0,0,1.2042,1.2057,1.2027,1.2037,1.2055,1.208,1.2073,1.21,1.2112,1.2087,1.2134,1.2122,1.2108,1.2115,1.2117,1.2026,1.2061,1.2023,1.1962,1.1936,1.1924,1.1914,1.1881,1.1869,1.2017,1.2016,1.2016,0,1.1979,1.1962,1.2006,1.1986,1.1988,1.2046,1.2015,1.2023,1.2036,1.2035,1.2064,1.2048,1.2061,1.2024,1.2002,1.2001,1.1993,1.202,1.1923,1.1913,1.1904,1.1873,1.186,1.2012,1.2012,1.2013,1.2013,0,1.1884,1.1871,1.1844,1.1858,1.1857,1.1831,1.187,1.1863,1.1892,1.1914,1.1887,1.1905,1.1904,1.1898,1.1925,1.1864,1.188,1.1915,1.1965,1.1884,1.1856,1.1844,1.2005,1.2006,1.2008,1.2009,0,0,1.1735,1.1775,1.1764,1.1771,1.1795,1.1786,1.1762,1.1764,1.1756,1.1764,1.1745,1.1733,1.1766,1.1768,1.1797,1.1775,1.1701,1.1813,1.1814,1.1791,1.1634,1.1606,1.1591,1.1725,1.1723,1.1721,1.1632,0,1.1645,1.1609,1.1649,1.1604,1.1592,1.1648,1.1628,1.164,1.166,1.1652,1.1675,1.1665,1.171,1.1711,1.1692,1.1714,1.167,1.1721,1.1706,1.1705,1.17,1.1577,1.1547,1.1462,1.1621,1.162,1.1618,0,1.1535,1.154,1.1494,1.1522,1.1518,1.1499,1.1504,1.1496,1.151,1.1527,1.153,1.1566,1.1544,1.1594,1.1564,1.1598,1.1594,1.1604,1.1602,1.1601,1.1656,1.1571,1.1436,1.1422,1.1601,1.1603,1.1604,0,1.143,1.1425,1.1397,1.1401,1.1433,1.1418,1.143,1.1448,1.1446,1.1449,1.1449,1.1449,1.1449,1.1447,1.1482,1.1516,1.1447,1.1501,1.1459,1.1458,1.1441,1.1441,1.1302,1.144,1.144,1.1441,1.1441,0,1.1325,1.1294,1.135,1.1332,1.13,1.1346,1.1312,1.133,1.1345,1.1331,1.1379,1.1365,1.1412,1.1403,1.143,1.14,1.14,1.1411,1.1419,1.1406,1.1404,1.1403,1.141,1.1437,1.1438,1.1439,1.1439,0,1.1201,1.1237,1.121,1.1243,1.1251,1.1225,1.1253,1.1237,1.1262,1.1244,1.1242,1.128,1.1271,1.1306,1.1303,1.1321,1.1277,1.1295,1.1272,1.1277,1.1233,1.1236,1.1087,1.107,1.122,1.1219,1.1217,0,1.113,1.1109,1.114,1.1135,1.1145,1.1136,1.1135,1.118,1.1176,1.1192,1.1174,1.117,1.1169,1.1152,1.1178,1.1176,1.1193,1.1141,1.1193,1.1181,1.1191,1.1191,1.1189,1.113,1.1128,1.1126,1.1125,0,1.1001,1.1021,1.1019,1.1022,1.102,1.1025,1.1033,1.1026,1.1073,1.1067,1.106,1.1059,1.1057,1.1051,1.1055,1.1066,1.1103,1.1109,1.1099,1.1085,1.1073,1.1078,1.1241,1.1112,1.1113,1.1114,1.1115,1.1115,1.0902,1.0885,1.0904,1.09,1.0911,1.0918,1.0905,1.0929,1.0924,1.0926,1.0953,1.094,1.0955,1.0964,1.0972,1.0962,1.0986,1.0972,1.0968,1.0963,1.0955,1.1076,1.0963,1.0963,1.0964,1.0964,1.0964,0,1.0774,1.079,1.0786,1.0796,1.0793,1.083,1.0841,1.0835,1.0823,1.0835,1.0834,1.0825,1.0821,1.0847,1.0846,1.0832,1.0849,1.083,1.0831,1.0833,1.0934,1.0943,1.0817,1.0817,1.0817,1.0817,1.0817,1.0817,1.0708,1.0681,1.0703,1.0682,1.0698,1.0687,1.069,1.0696,1.0706,1.0695,1.0692,1.071,1.0727,1.0728,1.0725,1.0733,1.0729,1.0705,1.0718,1.0812,1.0826,1.0839,1.0847,1.0704,1.0704,1.0617,1.0617,1.0616]}]]